TimeCST,TemperatureF,Dew PointF,Humidity,Sea Level PressureIn,VisibilityMPH,Wind Direction,Wind SpeedMPH,Gust SpeedMPH,PrecipitationIn,Events,Conditions,WindDirDegrees,DateUTC
12:08 AM,24.8,24.8,100,30.28,10.0,North,8.1,-,N/A,,Overcast,350,2013-03-02 06:08:00
12:12 AM,24.8,24.8,100,30.28,10.0,NNW,9.2,-,N/A,,Overcast,340,2013-03-02 06:12:00
12:58 AM,25.7,24.8,96,30.32,10.0,North,9.2,-,N/A,,Overcast,350,2013-03-02 06:58:00
1:43 AM,24.8,23.0,93,30.28,10.0,North,10.4,-,N/A,,Overcast,10,2013-03-02 07:43:00
1:58 AM,25.3,22.5,89,30.32,10.0,North,9.2,-,N/A,,Overcast,360,2013-03-02 07:58:00
2:58 AM,24.8,19.4,80,30.31,10.0,North,12.7,-,N/A,,Overcast,360,2013-03-02 08:58:00
3:58 AM,24.1,17.2,75,30.31,10.0,North,12.7,-,N/A,,Overcast,360,2013-03-02 09:58:00
4:33 AM,23.0,15.8,74,30.28,10.0,NNW,10.4,-,N/A,,Overcast,340,2013-03-02 10:33:00
5:04 AM,23.0,15.8,74,30.29,10.0,North,10.4,-,N/A,,Overcast,360,2013-03-02 11:04:00
6:10 AM,23.0,15.8,74,30.30,10.0,North,12.7,-,N/A,,Overcast,350,2013-03-02 12:10:00
6:58 AM,23.0,15.8,74,30.36,10.0,North,12.7,-,N/A,,Overcast,350,2013-03-02 12:58:00
7:03 AM,23.0,15.8,74,30.36,10.0,North,10.4,-,N/A,,Overcast,350,2013-03-02 13:03:00
7:58 AM,23.4,16.2,74,30.38,10.0,North,11.5,-,N/A,,Overcast,360,2013-03-02 13:58:00
8:59 AM,24.4,16.7,72,30.38,10.0,NNW,11.5,-,N/A,,Overcast,330,2013-03-02 14:59:00
9:58 AM,24.8,15.8,69,30.38,10.0,North,12.7,-,N/A,,Overcast,350,2013-03-02 15:58:00
10:58 AM,25.9,16.0,66,30.38,10.0,NNE,12.7,-,N/A,,Overcast,20,2013-03-02 16:58:00
11:58 AM,28.0,17.4,64,30.36,10.0,North,8.1,-,N/A,,Scattered Clouds,10,2013-03-02 17:58:00
12:10 PM,28.4,17.6,64,30.32,10.0,NNE,5.8,-,N/A,,Mostly Cloudy,20,2013-03-02 18:10:00
1:55 PM,30.2,17.6,60,30.29,10.0,North,5.8,-,N/A,,Clear,350,2013-03-02 19:55:00
2:55 PM,32.0,17.6,55,30.27,10.0,NW,3.5,-,N/A,,Clear,320,2013-03-02 20:55:00
3:58 PM,30.0,16.7,58,30.31,10.0,NW,6.9,-,N/A,,Clear,320,2013-03-02 21:58:00
4:58 PM,28.9,16.9,61,30.26,10.0,Calm,Calm,-,N/A,,Clear,0,2013-03-02 22:58:00
5:55 PM,28.4,17.6,64,30.26,10.0,ESE,2.3,-,N/A,,Clear,120,2013-03-02 23:55:00
7:58 PM,19.6,16.0,86,30.29,10.0,Calm,Calm,-,N/A,,Clear,0,2013-03-03 01:58:00
8:58 PM,17.2,14.4,88,30.28,10.0,Calm,Calm,-,N/A,,Clear,0,2013-03-03 02:58:00
9:58 PM,13.8,12.2,93,30.27,10.0,East,2.3,-,N/A,,Overcast,100,2013-03-03 03:58:00
10:58 PM,16.2,14.7,94,30.27,10.0,Calm,Calm,-,N/A,,Overcast,0,2013-03-03 04:58:00
11:58 PM,19.2,17.1,91,30.25,10.0,SSW,2.3,-,N/A,,Overcast,200,2013-03-03 05:58:00